Tracking 30009 objects as of 7-Dec-2024
HD Live streaming from Space Station
objects crossing your sky now

TACSAT-6

Track TACSAT-6 now!
10-day predictions
TACSAT-6 is classified as:


NORAD ID: 39473
Int'l Code: 2013-072M
Perigee: 423.4 km
Apogee: 650.1 km
Inclination: 120.5 °
Period: 95.2 minutes
Semi major axis: 6907 km
RCS: Unknown
Launch date: December 6, 2013
Source: United States (US)
Launch site: AIR FORCE WESTERN TEST RANGE (AFWTR)

TACSAT-6 is a military satellite that will test advanced nanosatellite communications technologies.
Your satellite tracking list
Your tracking list is empty




NASA's NSSDC Master Catalog

Two Line Element Set (TLE):
1 39473U 13072M   24342.13614112  .00045563  00000-0  18840-2 0  9999
2 39473 120.4807  96.0121 0164093 153.1260 207.8419 15.12161199 33946
Source of the keplerian elements: AFSPC